"SCET";"TARGET";"ELECTRON_DENSITY";"ERROR_FLAG";"ELECTRON_DENSITY_ERROR";"FREQ_FCE";"MEASURED_VALUE";"MEASURED_ITEM";"FREQ_PLASMA";"FREQ_UPPER_HYBRID";"FREQ_R_EQUALS_ZERO";"FREQ_L_EQUALS_ZERO";"ORBIT_NUMBER";"SATURN_RADIUS";"SATURN_IAU_LONGITUDE";"SATURN_SLS4_S_LONGITUDE";"SATURN_SLS4_N_LONGITUDE";"SATURN_SLS5_S_LONGITUDE";"SATURN_SLS5_N_LONGITUDE";"SATURN_LOCAL_TIME";"SATURN_KRONOGRAPHIC_LATITUDE";"SATURN_MAGNETIC_LATITUDE";"SATURN_L";"SATURN_L_OFFSET";"SATURN_SOLAR_EQUATORIAL_X";"SATURN_SOLAR_EQUATORIAL_Y";"SATURN_SOLAR_EQUATORIAL_Z";"SATURN_ALTITUDE";"ENCELADUS_ENCOUNTER_NUMBER";"ENCELADUS_RADIUS";"ENCELADUS_COROTATIONAL_X";"ENCELADUS_COROTATIONAL_Y";"ENCELADUS_COROTATIONAL_Z";"ENCELADUS_TRUE_ANOMALY";"ENCELADUS_PERIAPSIS_TIME";"JUPITER_RADIUS";"JUPITER_SYSTEMIII_LONGITUDE";"JUPITER_MAGNETIC_LATITUDE";"JUPITER_MAGNETIC_LOCAL_TIME";"JUPITER_L";"IO_PHASE";"EARTH_RADIUS";"EARTH_MAGNETIC_LATITUDE";"EARTH_LOCAL_TIME";"EARTH_L"
"[UTC]";"[0=Saturn, 1=Enceladus, 2=Jupiter, 3=Earth]";"[cm-3]";"[0=automated, 1=manual]";"[normalized density error]";"[Hz]";"[Hz]";"[0=upper hybrid frequency, 1=plasma frequency cutoff]";"[Hz]";"[Hz]";"[Hz]";"[Hz}";"[0, A, B, C, 3, 4, ... , 292, 293]";"[Rs where 1Rs=60268km]";"[degrees]";"[degrees]";"[degrees]";"[degrees]";"[degrees]";"[hours]";"[degrees]";"[degrees where offset=2293km north]";"[Rs where 1Rs=60268km]";"[Rs where 1Rs=60268km and offset=2293km north]";"[Rs where 1Rs=60268km]";"[Rs where 1Rs=60268km]";"[Rs where 1Rs=60268km]";"[km where ellipsoid a,b=60268km and c=54364km]";"[E0, E1, E2, ... , E21, E22]";"[Renc where 1Renc=252.1km]";"[Renc where 1Renc=252.1km]";"[Renc where 1Renc=252.1km]";"[Renc where 1Renc=252.1km]";"[degrees]";"[UTC]";"[Rj where 1Rj=71492km]";"[degrees]";"[degrees using JRM09 model]";"[hours using JRM09 model]";"[Rj where 1Rj=71492km]";"[degrees]";"[Re where 1Re=6378.1366km]";"[degrees]";"[hours]";"[Re where 1Re=6378.1366km]"
2010-09-02T18:27:45.505Z;0;2.4770e+01;0;     0.074;  2253.272;  44753.406; 0;  44696.645;  44753.406;  45837.480;  43584.207;137;   6.047; 134.989;;; 150.774; 145.474;   0.694;  -3.619;  -3.978;   6.071;   6.043;  -5.936;  -1.091;  -0.382;;;;;;;;;;;;;;;;;;
2010-09-02T18:28:01.505Z;0;2.2530e+01;0;     0.192;  2257.360;  42682.438; 0;  42622.703;  42682.438;  43766.324;  41508.965;137;   6.045; 135.112;;; 150.897; 145.597;   0.696;  -3.617;  -3.977;   6.069;   6.041;  -5.933;  -1.094;  -0.381;;;;;;;;;;;;;;;;;;
2010-09-02T18:28:17.505Z;0;2.3690e+01;0;     0.173;  2257.360;  43764.297; 0;  43706.039;  43764.297;  44849.293;  42591.934;137;   6.043; 135.236;;; 151.020; 145.720;   0.698;  -3.616;  -3.976;   6.067;   6.039;  -5.930;  -1.096;  -0.381;;;;;;;;;;;;;;;;;;
2010-09-02T18:28:33.504Z;0;1.9590e+01;0;     0.209;  2257.360;  39811.348; 0;  39747.297;  39811.348;  40892.000;  38634.641;137;   6.040; 135.360;;; 151.142; 145.842;   0.700;  -3.615;  -3.975;   6.065;   6.037;  -5.927;  -1.098;  -0.381;;;;;;;;;;;;;;;;;;
2010-09-02T18:28:49.504Z;0;1.9500e+01;0;     0.194;  2257.360;  39721.703; 0;  39657.508;  39721.703;  40802.246;  38544.887;137;   6.038; 135.483;;; 151.265; 145.965;   0.702;  -3.613;  -3.973;   6.062;   6.035;  -5.925;  -1.101;  -0.381;;;;;;;;;;;;;;;;;;
2010-09-02T18:29:21.504Z;0;2.1330e+01;0;     0.181;  2263.128;  41530.801; 0;  41469.094;  41530.801;  42616.094;  40352.965;137;   6.034; 135.730;;; 151.511; 146.211;   0.705;  -3.611;  -3.971;   6.058;   6.030;  -5.919;  -1.105;  -0.380;;;;;;;;;;;;;;;;;;
2010-09-02T18:29:37.504Z;0;2.4830e+01;0;     0.115;  2263.128;  44802.984; 0;  44745.789;  44802.984;  45891.660;  43628.531;137;   6.031; 135.854;;; 151.634; 146.334;   0.707;  -3.609;  -3.970;   6.055;   6.028;  -5.917;  -1.108;  -0.380;;;;;;;;;;;;;;;;;;
2010-09-02T18:29:53.504Z;0;1.8770e+01;0;     0.228;  2263.128;  38967.262; 0;  38901.488;  38967.262;  40049.504;  37786.379;137;   6.029; 135.977;;; 151.756; 146.456;   0.709;  -3.608;  -3.969;   6.053;   6.026;  -5.914;  -1.110;  -0.379;;;;;;;;;;;;;;;;;;
2010-09-02T18:30:09.504Z;0;2.4050e+01;0;     0.064;  2283.064;  44094.117; 0;  44034.973;  44094.117;  45191.297;  42908.234;137;   6.027; 136.101;;; 151.879; 146.579;   0.710;  -3.607;  -3.967;   6.051;   6.023;  -5.911;  -1.112;  -0.379;;;;;;;;;;;;;;;;;;
2010-09-02T18:30:25.504Z;0;2.5940e+01;0;     0.105;  2283.064;  45793.180; 0;  45736.230;  45793.180;  46892.008;  44608.945;137;   6.025; 136.224;;; 152.002; 146.702;   0.712;  -3.605;  -3.966;   6.049;   6.021;  -5.909;  -1.115;  -0.379;;;;;;;;;;;;;;;;;;
2010-09-02T18:30:57.503Z;0;1.9280e+01;0;     0.186;  2283.064;  39497.605; 0;  39431.566;  39497.605;  40589.617;  38306.555;137;   6.020; 136.471;;; 152.247; 146.947;   0.716;  -3.603;  -3.964;   6.044;   6.017;  -5.903;  -1.119;  -0.378;;;;;;;;;;;;;;;;;;
2010-09-02T18:31:29.503Z;0;2.0710e+01;0;     0.191;  2297.764;  40926.113; 0;  40861.559;  40926.113;  42026.590;  39728.824;137;   6.016; 136.718;;; 152.492; 147.192;   0.719;  -3.600;  -3.961;   6.040;   6.012;  -5.898;  -1.124;  -0.378;;;;;;;;;;;;;;;;;;
2010-09-02T18:31:45.503Z;0;2.0450e+01;0;     0.203;  2297.764;  40670.734; 0;  40605.773;  40670.734;  41770.906;  39473.141;137;   6.014; 136.842;;; 152.615; 147.315;   0.721;  -3.598;  -3.960;   6.037;   6.010;  -5.895;  -1.126;  -0.377;;;;;;;;;;;;;;;;;;
2010-09-02T18:32:01.503Z;0;2.0950e+01;0;     0.164;  2302.188;  41163.305; 0;  41098.875;  41163.305;  42266.086;  39963.898;137;   6.011; 136.965;;; 152.737; 147.437;   0.723;  -3.597;  -3.959;   6.035;   6.008;  -5.892;  -1.129;  -0.377;;;;;;;;;;;;;;;;;;
2010-09-02T18:32:17.503Z;0;1.9400e+01;0;     0.203;  2302.188;  39615.395; 0;  39548.445;  39615.395;  40716.285;  38414.098;137;   6.009; 137.088;;; 152.860; 147.560;   0.725;  -3.596;  -3.958;   6.033;   6.005;  -5.890;  -1.131;  -0.377;;;;;;;;;;;;;;;;;;
2010-09-02T18:32:33.503Z;0;1.9860e+01;0;     0.229;  2302.188;  40082.035; 0;  40015.867;  40082.035;  41183.512;  38881.324;137;   6.007; 137.212;;; 152.983; 147.683;   0.726;  -3.594;  -3.956;   6.031;   6.003;  -5.887;  -1.133;  -0.377;;;;;;;;;;;;;;;;;;
2010-09-02T18:32:49.503Z;0;2.0160e+01;0;     0.098;  2302.188;  40386.230; 0;  40320.559;  40386.230;  41488.082;  39185.895;137;   6.005; 137.335;;; 153.105; 147.805;   0.728;  -3.593;  -3.955;   6.028;   6.001;  -5.884;  -1.136;  -0.376;;;;;;;;;;;;;;;;;;
2010-09-02T18:33:05.504Z;0;1.8600e+01;0;     0.076;  2321.228;  38795.262; 0;  38725.758;  38795.262;  39903.758;  37582.531;137;   6.002; 137.458;;; 153.228; 147.928;   0.730;  -3.592;  -3.954;   6.026;   5.999;  -5.881;  -1.138;  -0.376;;;;;;;;;;;;;;;;;;
2010-09-02T18:33:21.502Z;0;1.7760e+01;0;     0.213;  2321.228;  37910.070; 0;  37838.938;  37910.070;  39017.348;  36696.121;137;   6.000; 137.582;;; 153.350; 148.050;   0.732;  -3.590;  -3.953;   6.024;   5.997;  -5.879;  -1.140;  -0.376;;;;;;;;;;;;;;;;;;
2010-09-02T18:33:37.502Z;0;2.3180e+01;0;     0.139;  2321.228;  43292.492; 0;  43230.219;  43292.492;  44406.410;  42085.180;137;   5.998; 137.705;;; 153.472; 148.172;   0.734;  -3.589;  -3.951;   6.022;   5.994;  -5.876;  -1.143;  -0.375;;;;;;;;;;;;;;;;;;
2010-09-02T18:33:53.502Z;0;2.1280e+01;0;     0.177;  2321.228;  41490.184; 0;  41425.199;  41490.184;  42602.070;  40280.844;137;   5.996; 137.828;;; 153.595; 148.295;   0.735;  -3.587;  -3.950;   6.019;   5.992;  -5.873;  -1.145;  -0.375;;;;;;;;;;;;;;;;;;
2010-09-02T18:34:25.502Z;0;1.9450e+01;0;     0.184;  2333.296;  39668.750; 0;  39600.070;  39668.750;  40783.898;  38450.602;137;   5.991; 138.074;;; 153.840; 148.540;   0.739;  -3.585;  -3.948;   6.015;   5.988;  -5.868;  -1.150;  -0.375;;;;;;;;;;;;;;;;;;
2010-09-02T18:34:41.502Z;0;1.9490e+01;0;     0.205;  2333.296;  39715.680; 0;  39647.078;  39715.680;  40830.891;  38497.594;137;   5.989; 138.198;;; 153.962; 148.662;   0.741;  -3.583;  -3.946;   6.013;   5.985;  -5.865;  -1.152;  -0.374;;;;;;;;;;;;;;;;;;
2010-09-02T18:34:57.502Z;0;2.4090e+01;0;     0.094;  2333.296;  44141.133; 0;  44079.422;  44141.133;  45261.504;  42928.207;137;   5.987; 138.321;;; 154.084; 148.784;   0.743;  -3.582;  -3.945;   6.010;   5.983;  -5.862;  -1.154;  -0.374;;;;;;;;;;;;;;;;;;
2010-09-02T18:35:13.502Z;0;2.3340e+01;0;     0.164;  2343.684;  43446.227; 0;  43382.965;  43446.227;  44570.633;  42226.949;137;   5.985; 138.444;;; 154.207; 148.907;   0.744;  -3.581;  -3.944;   6.008;   5.981;  -5.860;  -1.157;  -0.374;;;;;;;;;;;;;;;;;;
2010-09-02T18:35:29.502Z;0;2.2900e+01;0;     0.173;  2343.684;  43034.781; 0;  42970.914;  43034.781;  44158.734;  41815.047;137;   5.982; 138.567;;; 154.329; 149.029;   0.746;  -3.579;  -3.943;   6.006;   5.979;  -5.857;  -1.159;  -0.373;;;;;;;;;;;;;;;;;;
2010-09-02T18:35:45.502Z;0;2.7720e+01;0;     0.124;  2343.684;  47333.734; 0;  47275.676;  47333.734;  48462.039;  46118.355;137;   5.980; 138.690;;; 154.451; 149.151;   0.748;  -3.578;  -3.941;   6.003;   5.976;  -5.854;  -1.161;  -0.373;;;;;;;;;;;;;;;;;;
2010-09-02T18:36:01.502Z;0;2.7660e+01;0;     0.068;  2364.236;  47288.750; 0;  47229.613;  47288.750;  48426.523;  46062.285;137;   5.978; 138.813;;; 154.574; 149.274;   0.750;  -3.576;  -3.940;   6.001;   5.974;  -5.852;  -1.164;  -0.373;;;;;;;;;;;;;;;;;;
2010-09-02T18:36:17.502Z;0;2.2830e+01;0;     0.181;  2364.236;  42975.910; 0;  42910.828;  42975.910;  44109.227;  41744.992;137;   5.976; 138.936;;; 154.696; 149.396;   0.752;  -3.575;  -3.939;   5.999;   5.972;  -5.849;  -1.166;  -0.373;;;;;;;;;;;;;;;;;;
2010-09-02T18:36:33.502Z;0;2.3110e+01;0;     0.109;  2364.236;  43237.398; 0;  43172.711;  43237.398;  44371.012;  42006.773;137;   5.973; 139.059;;; 154.818; 149.518;   0.753;  -3.574;  -3.938;   5.997;   5.970;  -5.846;  -1.168;  -0.372;;;;;;;;;;;;;;;;;;
2010-09-02T18:36:49.502Z;0;2.5800e+01;0;     0.127;  2364.236;  45676.941; 0;  45615.715;  45676.941;  46813.148;  44448.910;137;   5.971; 139.182;;; 154.940; 149.640;   0.755;  -3.572;  -3.936;   5.994;   5.968;  -5.843;  -1.171;  -0.372;;;;;;;;;;;;;;;;;;
2010-09-02T18:37:05.502Z;0;2.9740e+01;0;     0.071;  2369.864;  49029.766; 0;  48972.457;  49029.766;  50171.723;  47801.859;137;   5.969; 139.305;;; 155.063; 149.763;   0.757;  -3.571;  -3.935;   5.992;   5.965;  -5.841;  -1.173;  -0.372;;;;;;;;;;;;;;;;;;
2010-09-02T18:37:21.502Z;0;2.7650e+01;0;     0.074;  2369.864;  47280.594; 0;  47221.164;  47280.594;  48420.961;  46051.098;137;   5.967; 139.428;;; 155.185; 149.885;   0.759;  -3.569;  -3.934;   5.990;   5.963;  -5.838;  -1.175;  -0.371;;;;;;;;;;;;;;;;;;
2010-09-02T18:37:53.500Z;0;2.5760e+01;0;     0.139;  2369.864;  45640.598; 0;  45579.027;  45640.598;  46779.359;  44409.496;137;   5.962; 139.674;;; 155.429; 150.129;   0.762;  -3.567;  -3.931;   5.985;   5.959;  -5.832;  -1.180;  -0.371;;;;;;;;;;;;;;;;;;
2010-09-02T18:38:09.500Z;0;2.5790e+01;0;     0.164;  2382.016;  45664.891; 0;  45602.723;  45664.891;  46809.281;  44427.266;137;   5.960; 139.797;;; 155.551; 150.251;   0.764;  -3.565;  -3.930;   5.983;   5.956;  -5.830;  -1.182;  -0.371;;;;;;;;;;;;;;;;;;
2010-09-02T18:38:25.500Z;0;2.4930e+01;0;     0.167;  2382.016;  44901.383; 0;  44838.156;  44901.383;  46044.980;  43662.961;137;   5.958; 139.920;;; 155.673; 150.373;   0.766;  -3.564;  -3.929;   5.981;   5.954;  -5.827;  -1.185;  -0.370;;;;;;;;;;;;;;;;;;
2010-09-02T18:38:41.500Z;0;2.7350e+01;0;     0.133;  2382.016;  47019.820; 0;  46959.445;  47019.820;  48165.555;  45783.539;137;   5.956; 140.043;;; 155.795; 150.495;   0.768;  -3.562;  -3.927;   5.979;   5.952;  -5.824;  -1.187;  -0.370;;;;;;;;;;;;;;;;;;
2010-09-02T18:38:57.500Z;0;2.9050e+01;0;     0.090;  2382.016;  48457.355; 0;  48398.773;  48457.355;  49604.434;  47222.418;137;   5.953; 140.166;;; 155.917; 150.617;   0.770;  -3.561;  -3.926;   5.976;   5.950;  -5.821;  -1.189;  -0.370;;;;;;;;;;;;;;;;;;
2010-09-02T18:39:13.500Z;0;2.3790e+01;0;     0.156;  2395.680;  43864.242; 0;  43798.773;  43864.242;  45012.988;  42617.309;137;   5.951; 140.288;;; 156.039; 150.739;   0.772;  -3.560;  -3.925;   5.974;   5.947;  -5.819;  -1.192;  -0.369;;;;;;;;;;;;;;;;;;
2010-09-02T18:39:29.500Z;0;2.7250e+01;0;     0.086;  2395.680;  46942.312; 0;  46881.141;  46942.312;  48094.281;  45698.602;137;   5.949; 140.411;;; 156.161; 150.861;   0.773;  -3.558;  -3.924;   5.972;   5.945;  -5.816;  -1.194;  -0.369;;;;;;;;;;;;;;;;;;
2010-09-02T18:39:45.500Z;0;2.9840e+01;0;     0.068;  2395.680;  49110.781; 0;  49052.312;  49110.781;  50264.777;  47869.098;137;   5.947; 140.534;;; 156.283; 150.983;   0.775;  -3.557;  -3.922;   5.970;   5.943;  -5.813;  -1.196;  -0.369;;;;;;;;;;;;;;;;;;
2010-09-02T18:40:01.500Z;0;3.0190e+01;0;     0.076;  2401.644;  49399.336; 0;  49340.922;  49399.336;  50556.352;  48154.711;137;   5.944; 140.657;;; 156.406; 151.105;   0.777;  -3.555;  -3.921;   5.967;   5.941;  -5.811;  -1.199;  -0.369;;;;;;;;;;;;;;;;;;
2010-09-02T18:40:17.498Z;0;2.7250e+01;0;     0.138;  2401.644;  46934.602; 0;  46873.113;  46934.602;  48089.316;  45687.672;137;   5.942; 140.780;;; 156.529; 151.227;   0.779;  -3.554;  -3.920;   5.965;   5.939;  -5.808;  -1.201;  -0.368;;;;;;;;;;;;;;;;;;
2010-09-02T18:40:49.873Z;0;2.8990e+01;0;     0.076;  2401.644;  48407.211; 0;  48347.598;  48407.211;  49563.328;  47161.688;137;   5.938; 141.028;;; 156.779; 151.474;   0.783;  -3.551;  -3.917;   5.960;   5.934;  -5.802;  -1.206;  -0.368;;;;;;;;;;;;;;;;;;
2010-09-02T18:41:05.498Z;0;2.5760e+01;0;     0.139;  2402.820;  45641.219; 0;  45577.926;  45641.219;  46795.168;  44392.348;137;   5.935; 141.148;;; 156.899; 151.593;   0.784;  -3.550;  -3.916;   5.958;   5.932;  -5.800;  -1.208;  -0.367;;;;;;;;;;;;;;;;;;
2010-09-02T18:41:21.498Z;0;2.5210e+01;0;     0.158;  2402.820;  45149.980; 0;  45085.996;  45149.980;  46303.410;  43900.594;137;   5.933; 141.270;;; 157.023; 151.715;   0.786;  -3.548;  -3.915;   5.956;   5.930;  -5.797;  -1.210;  -0.367;;;;;;;;;;;;;;;;;;
2010-09-02T18:41:37.498Z;0;2.8160e+01;0;     0.137;  2402.820;  47717.594; 0;  47657.059;  47717.594;  48873.609;  46470.789;137;   5.931; 141.393;;; 157.146; 151.837;   0.788;  -3.547;  -3.913;   5.954;   5.927;  -5.794;  -1.213;  -0.367;;;;;;;;;;;;;;;;;;
2010-09-02T18:41:53.498Z;0;2.6980e+01;0;     0.158;  2402.820;  46701.734; 0;  46639.879;  46701.734;  47856.762;  45453.941;137;   5.929; 141.516;;; 157.270; 151.959;   0.790;  -3.545;  -3.912;   5.952;   5.925;  -5.791;  -1.215;  -0.367;;;;;;;;;;;;;;;;;;
2010-09-02T18:42:09.498Z;0;2.5710e+01;0;     0.151;  2419.424;  45600.602; 0;  45536.371;  45600.602;  46762.152;  44342.727;137;   5.927; 141.638;;; 157.394; 152.080;   0.792;  -3.544;  -3.911;   5.949;   5.923;  -5.789;  -1.217;  -0.366;;;;;;;;;;;;;;;;;;
2010-09-02T18:42:25.498Z;0;2.7110e+01;0;     0.168;  2419.424;  46819.859; 0;  46757.305;  46819.859;  47982.664;  45563.238;137;   5.924; 141.761;;; 157.517; 152.202;   0.794;  -3.542;  -3.909;   5.947;   5.921;  -5.786;  -1.220;  -0.366;;;;;;;;;;;;;;;;;;
2010-09-02T18:42:41.498Z;0;2.9130e+01;0;     0.120;  2419.424;  48524.656; 0;  48464.305;  48524.656;  49689.109;  47269.688;137;   5.922; 141.883;;; 157.641; 152.324;   0.795;  -3.541;  -3.908;   5.945;   5.918;  -5.783;  -1.222;  -0.366;;;;;;;;;;;;;;;;;;
2010-09-02T18:42:57.498Z;0;2.6020e+01;0;     0.152;  2419.424;  45869.988; 0;  45806.137;  45869.988;  47031.820;  44612.395;137;   5.920; 142.006;;; 157.765; 152.446;   0.797;  -3.540;  -3.907;   5.942;   5.916;  -5.780;  -1.224;  -0.365;;;;;;;;;;;;;;;;;;
2010-09-02T18:43:13.498Z;0;2.5080e+01;0;     0.163;  2437.848;  45033.926; 0;  44967.895;  45033.926;  46203.336;  43765.484;137;   5.918; 142.128;;; 157.889; 152.567;   0.799;  -3.538;  -3.906;   5.940;   5.914;  -5.777;  -1.227;  -0.365;;;;;;;;;;;;;;;;;;
2010-09-02T18:43:29.498Z;0;2.6020e+01;0;     0.152;  2437.848;  45872.152; 0;  45807.328;  45872.152;  47042.465;  44604.617;137;   5.915; 142.251;;; 158.013; 152.689;   0.801;  -3.537;  -3.904;   5.938;   5.912;  -5.775;  -1.229;  -0.365;;;;;;;;;;;;;;;;;;
2010-09-02T18:43:45.498Z;0;2.7670e+01;0;     0.130;  2437.848;  47303.875; 0;  47241.016;  47303.875;  48475.660;  46037.812;137;   5.913; 142.373;;; 158.137; 152.811;   0.803;  -3.535;  -3.903;   5.936;   5.910;  -5.772;  -1.231;  -0.365;;;;;;;;;;;;;;;;;;
2010-09-02T18:44:01.498Z;0;2.7670e+01;0;     0.152;  2452.044;  47300.434; 0;  47236.836;  47300.434;  48478.766;  46026.719;137;   5.911; 142.496;;; 158.261; 152.932;   0.805;  -3.534;  -3.902;   5.933;   5.907;  -5.769;  -1.234;  -0.364;;;;;;;;;;;;;;;;;;
2010-09-02T18:44:17.498Z;0;3.1890e+01;0;     0.116;  2452.044;  50772.270; 0;  50713.023;  50772.270;  51953.863;  49501.820;137;   5.909; 142.618;;; 158.385; 153.054;   0.806;  -3.532;  -3.900;   5.931;   5.905;  -5.766;  -1.236;  -0.364;;;;;;;;;;;;;;;;;;
2010-09-02T18:44:33.498Z;0;2.9630e+01;0;     0.149;  2452.044;  48943.887; 0;  48882.426;  48943.887;  50123.820;  47671.777;137;   5.906; 142.741;;; 158.509; 153.176;   0.808;  -3.531;  -3.899;   5.929;   5.903;  -5.764;  -1.238;  -0.364;;;;;;;;;;;;;;;;;;
2010-09-02T18:44:49.496Z;0;2.9840e+01;0;     0.160;  2452.044;  49116.734; 0;  49055.488;  49116.734;  50296.828;  47844.785;137;   5.904; 142.863;;; 158.633; 153.297;   0.810;  -3.529;  -3.898;   5.927;   5.901;  -5.761;  -1.241;  -0.363;;;;;;;;;;;;;;;;;;
2010-09-02T18:45:05.496Z;0;2.7310e+01;0;     0.174;  2479.400;  46989.781; 0;  46924.324;  46989.781;  48180.395;  45700.996;137;   5.902; 142.985;;; 158.757; 153.419;   0.812;  -3.528;  -3.896;   5.924;   5.898;  -5.758;  -1.243;  -0.363;;;;;;;;;;;;;;;;;;
2010-09-02T18:45:21.496Z;0;3.2680e+01;0;     0.061;  2479.400;  51394.238; 0;  51334.398;  51394.238;  52589.062;  50109.664;137;   5.900; 143.108;;; 158.882; 153.540;   0.814;  -3.527;  -3.895;   5.922;   5.896;  -5.755;  -1.245;  -0.363;;;;;;;;;;;;;;;;;;
2010-09-02T18:45:37.496Z;0;3.2810e+01;0;     0.064;  2479.400;  51497.352; 0;  51437.629;  51497.352;  52692.266;  50212.867;137;   5.898; 143.230;;; 159.006; 153.662;   0.816;  -3.525;  -3.894;   5.920;   5.894;  -5.753;  -1.248;  -0.363;;;;;;;;;;;;;;;;;;
2010-09-02T18:45:53.496Z;0;3.1610e+01;0;     0.084;  2479.400;  50550.340; 0;  50489.500;  50550.340;  51744.414;  49265.016;137;   5.895; 143.352;;; 159.130; 153.783;   0.818;  -3.524;  -3.892;   5.918;   5.892;  -5.750;  -1.250;  -0.362;;;;;;;;;;;;;;;;;;
2010-09-02T18:46:09.496Z;0;3.1830e+01;0;     0.078;  2492.756;  50727.695; 0;  50666.410;  50727.695;  51928.117;  49435.359;137;   5.893; 143.475;;; 159.255; 153.905;   0.819;  -3.522;  -3.891;   5.915;   5.889;  -5.747;  -1.252;  -0.362;;;;;;;;;;;;;;;;;;
2010-09-02T18:46:25.496Z;0;3.1660e+01;0;     0.079;  2492.756;  50588.465; 0;  50527.012;  50588.465;  51788.762;  49296.004;137;   5.891; 143.597;;; 159.379; 154.026;   0.821;  -3.521;  -3.890;   5.913;   5.887;  -5.744;  -1.255;  -0.362;;;;;;;;;;;;;;;;;;
2010-09-02T18:46:41.496Z;0;3.2550e+01;0;     0.080;  2492.756;  51292.527; 0;  51231.918;  51292.527;  52493.457;  50000.699;137;   5.889; 143.719;;; 159.504; 154.148;   0.823;  -3.519;  -3.888;   5.911;   5.885;  -5.741;  -1.257;  -0.361;;;;;;;;;;;;;;;;;;
2010-09-02T18:46:57.496Z;0;3.1290e+01;0;     0.081;  2492.756;  50291.727; 0;  50229.910;  50291.727;  51491.750;  48998.992;137;   5.886; 143.842;;; 159.628; 154.269;   0.825;  -3.518;  -3.887;   5.909;   5.883;  -5.739;  -1.259;  -0.361;;;;;;;;;;;;;;;;;;
2010-09-02T18:47:13.496Z;0;3.1900e+01;0;     0.069;  2490.908;  50781.961; 0;  50720.832;  50781.961;  51981.574;  49490.668;137;   5.884; 143.964;;; 159.753; 154.391;   0.827;  -3.516;  -3.886;   5.906;   5.881;  -5.736;  -1.262;  -0.361;;;;;;;;;;;;;;;;;;
2010-09-02T18:47:29.496Z;0;3.3610e+01;0;     0.102;  2490.908;  52121.332; 0;  52061.777;  52121.332;  53322.125;  50831.219;137;   5.882; 144.086;;; 159.878; 154.512;   0.829;  -3.515;  -3.885;   5.904;   5.878;  -5.733;  -1.264;  -0.361;;;;;;;;;;;;;;;;;;
2010-09-02T18:47:45.496Z;0;3.0860e+01;0;     0.120;  2490.908;  49946.512; 0;  49884.359;  49946.512;  51145.359;  48654.453;137;   5.880; 144.208;;; 160.002; 154.633;   0.831;  -3.513;  -3.883;   5.902;   5.876;  -5.730;  -1.266;  -0.360;;;;;;;;;;;;;;;;;;
2010-09-02T18:48:01.496Z;0;3.0640e+01;0;     0.137;  2511.124;  49768.023; 0;  49704.633;  49768.023;  50976.051;  48464.926;137;   5.877; 144.330;;; 160.127; 154.755;   0.832;  -3.512;  -3.882;   5.900;   5.874;  -5.728;  -1.269;  -0.360;;;;;;;;;;;;;;;;;;
2010-09-02T18:48:17.496Z;0;3.0370e+01;0;     0.129;  2511.124;  49553.691; 0;  49490.023;  49553.691;  50761.512;  48250.387;137;   5.875; 144.452;;; 160.252; 154.876;   0.834;  -3.510;  -3.880;   5.897;   5.872;  -5.725;  -1.271;  -0.360;;;;;;;;;;;;;;;;;;
2010-09-02T18:48:33.496Z;0;3.0390e+01;0;     0.119;  2511.124;  49571.410; 0;  49507.766;  49571.410;  50779.246;  48268.125;137;   5.873; 144.574;;; 160.377; 154.997;   0.836;  -3.509;  -3.879;   5.895;   5.869;  -5.722;  -1.273;  -0.359;;;;;;;;;;;;;;;;;;
2010-09-02T18:48:49.496Z;0;2.9280e+01;0;     0.145;  2511.124;  48656.496; 0;  48591.656;  48656.496;  49863.434;  47352.312;137;   5.871; 144.697;;; 160.502; 155.119;   0.838;  -3.507;  -3.878;   5.893;   5.867;  -5.719;  -1.276;  -0.359;;;;;;;;;;;;;;;;;;
2010-09-02T18:49:05.496Z;0;3.2270e+01;0;     0.093;  2509.920;  51073.441; 0;  51011.730;  51073.441;  52282.125;  49772.207;137;   5.869; 144.819;;; 160.627; 155.240;   0.840;  -3.506;  -3.876;   5.891;   5.865;  -5.716;  -1.278;  -0.359;;;;;;;;;;;;;;;;;;
2010-09-02T18:49:21.494Z;0;3.2140e+01;0;     0.078;  2509.920;  50968.941; 0;  50907.105;  50968.941;  52177.531;  49667.609;137;   5.866; 144.941;;; 160.752; 155.361;   0.842;  -3.504;  -3.875;   5.888;   5.863;  -5.714;  -1.280;  -0.359;;;;;;;;;;;;;;;;;;
2010-09-02T18:49:37.494Z;0;3.2540e+01;0;     0.083;  2509.920;  51285.473; 0;  51224.020;  51285.473;  52494.348;  49984.430;137;   5.864; 145.063;;; 160.877; 155.483;   0.844;  -3.503;  -3.874;   5.886;   5.861;  -5.711;  -1.282;  -0.358;;;;;;;;;;;;;;;;;;
2010-09-02T18:49:53.494Z;0;3.2430e+01;0;     0.082;  2509.920;  51201.828; 0;  51140.273;  51201.828;  52410.629;  49900.707;137;   5.862; 145.185;;; 161.002; 155.604;   0.846;  -3.501;  -3.872;   5.884;   5.858;  -5.708;  -1.285;  -0.358;;;;;;;;;;;;;;;;;;
2010-09-02T18:50:09.494Z;0;3.2010e+01;0;     0.090;  2518.012;  50868.262; 0;  50805.902;  50868.262;  52080.504;  49562.492;137;   5.860; 145.307;;; 161.126; 155.726;   0.847;  -3.500;  -3.871;   5.882;   5.856;  -5.705;  -1.287;  -0.358;;;;;;;;;;;;;;;;;;
2010-09-02T18:50:25.494Z;0;3.0530e+01;0;     0.117;  2518.012;  49678.508; 0;  49614.652;  49678.508;  50889.629;  48371.617;137;   5.857; 145.429;;; 161.248; 155.848;   0.849;  -3.498;  -3.870;   5.879;   5.854;  -5.703;  -1.289;  -0.357;;;;;;;;;;;;;;;;;;
2010-09-02T18:50:57.494Z;0;3.1920e+01;0;     0.105;  2518.012;  50798.629; 0;  50736.184;  50798.629;  52010.809;  49492.797;137;   5.853; 145.672;;; 161.493; 156.094;   0.853;  -3.495;  -3.867;   5.875;   5.849;  -5.697;  -1.294;  -0.357;;;;;;;;;;;;;;;;;;
2010-09-02T18:51:29.494Z;0;2.9790e+01;0;     0.144;  2541.420;  49079.109; 0;  49013.266;  49079.109;  50300.445;  47759.023;137;   5.849; 145.916;;; 161.737; 156.339;   0.857;  -3.492;  -3.864;   5.870;   5.845;  -5.691;  -1.299;  -0.356;;;;;;;;;;;;;;;;;;
2010-09-02T18:53:53.494Z;0;2.9380e+01;0;     0.074;  2587.788;  48741.176; 0;  48672.430;  48741.176;  49983.520;  47395.734;137;   5.828; 147.012;;; 162.831; 157.446;   0.874;  -3.479;  -3.852;   5.850;   5.825;  -5.666;  -1.320;  -0.354;;;;;;;;;;;;;;;;;;
2010-09-02T18:54:09.492Z;0;3.3760e+01;0;     0.073;  2593.612;  52244.820; 0;  52180.402;  52244.820;  53493.320;  50899.707;137;   5.826; 147.134;;; 162.952; 157.569;   0.876;  -3.477;  -3.851;   5.848;   5.823;  -5.663;  -1.322;  -0.353;;;;;;;;;;;;;;;;;;
2010-09-02T18:54:25.492Z;0;2.7190e+01;0;     0.179;  2593.612;  46898.703; 0;  46826.934;  46898.703;  48141.691;  45548.078;137;   5.824; 147.255;;; 163.073; 157.693;   0.878;  -3.476;  -3.849;   5.846;   5.820;  -5.660;  -1.324;  -0.353;;;;;;;;;;;;;;;;;;